7 * 24
多渠道服务支持
STARLINK-34859是美国于2025年8月27日发射的星链卫星,隶属于SpaceX的星链互联网星座项目。星链计划旨在构建全球卫星互联网,为全球偏远地区、海洋等通信薄弱区域提供低成本高速网络服务,该卫星的发射是星链星座扩容、完善全球覆盖能力的一步,持续推进星座组网进程。
美国
(US)
| 数据来源 | 国际轨道数据 |
| 星历时间: | 2026-09-12T11:35:12+0800 23小时前 查看轨道信息 |
| 半长轴: | 6840.97km |
| 偏心率: | 0.0000981 |
| 轨道倾角: | 53.159° |
| 近地点辐角 | 110.212° |
| 升交点赤经 | 58.595° |
| 平近点角 | 249.899° |
| 近地点: | 462.161km |
| 远地点: | 463.505km |
| 周期: | 93.850分钟 |
| 每日圈数: | 15.343564 |